Regional Weather Roundup
Issued by NWS

Home | Current Version | Previous Version | Graphics & Text | Print | Product List | Glossary On
Versions: 1 2 3 4 5 6 7 8 9 10 11 12 13 14 15 16 17 18 19 20 21 22 23 24 25 26 27 28 29 30 31 32 33 34 35 36 37 38 39 40 41 42 43 44 45 46 47 48 49 50
000
ASUS43 KMPX 281910
RWRMN
WEATHER ROUNDUP FOR MINNESOTA
NATIONAL WEATHER SERVICE TWIN CITIES/CHANHASSEN MN
200 PM CDT FRI JUL 28 2017


NOTE: "FAIR" INDICATES FEW OR NO CLOUDS BELOW 12,000 FEET WITH NO
SIGNIFICANT WEATHER AND/OR OBSTRUCTIONS TO VISIBILITY. N/A MEANS
CURRENT SKY AND/OR WEATHER CONDITIONS ARE NOT AVAILABLE.

MNZ060>063-068>070-282000-
   Twin Cities Metro

CITY           SKY/WX    TMP DP  RH WIND       PRES   REMARKS
TWIN CITIES    MOSUNNY   82  57  42 SE9       30.09S
ST PAUL        MOSUNNY   82  59  45 SE8       30.09S
CRYSTAL        SUNNY     83  52  34 VRB3      30.08S
BLAINE         MOSUNNY   84  55  37 E10       30.09S
LAKEVILLE      MOSUNNY   81  64  57 NE6       30.10R
EDEN PRAIRIE   MOSUNNY   83  57  41 SE9       30.08S
SOUTH ST PAUL  SUNNY     81  57  44 E9        30.09S
LAKE ELMO      FAIR      81  61  50 E6        30.10F
$$
MNZ001>005-007-008-013>017-022>024-027-028-282000-
   Northwest Minnesota

CITY           SKY/WX    TMP DP  RH WIND       PRES   REMARKS
BEMIDJI        SUNNY     82  57  42 CALM      30.10F
HALLOCK        SUNNY     82  59  44 S9        30.05F
ROSEAU         SUNNY     82  64  54 CALM      30.08S
WARROAD        SUNNY     81  66  61 CALM      30.08F
THIEF RVR FALL MOSUNNY   82  60  47 E5        30.08F
CROOKSTON      SUNNY     82  57  42 SW7       30.07F
FOSSTON        MOSUNNY   82  64  54 SE5       30.10F
DETROIT LAKES  SUNNY     81  55  41 SW5       30.12S
MOORHEAD       MOSUNNY   84  57  39 SE8       30.07F
PARK RAPIDS    MOSUNNY   82  56  40 CALM      30.10F
MAHNOMEN       FAIR      82  58  43 SE5       30.09F
$$
MNZ006-009>011-018-025>026-282000-
   North Central Minnesota

CITY           SKY/WX    TMP DP  RH WIND       PRES   REMARKS
BAUDETTE       MOSUNNY   82  59  45 W5        30.08F
FLAG ISLAND    SUNNY     81  64  57 S9        30.07S
INTL FALLS     SUNNY     81  59  47 W3        30.09F
WASKISH        SUNNY     82  63  51 W5        30.10S
BIG FORK       SUNNY     82  57  42 CALM      30.11F
LONGVILLE      MOSUNNY   81  57  44 CALM      30.11F
GRAND RAPIDS   MOSUNNY   79  57  46 VRB3      30.14F
CRANE LAKE     SUNNY     81  55  41 NE5       30.11F
ORR            MOSUNNY   77  55  47 CALM      30.09S
COOK             N/A     79  55  44 CALM      30.12S
WALKER         FAIR      78  62  57 E5        30.11F
$$
MNZ012-019>021-037-282000-
   Northeast Minnesota

CITY           SKY/WX    TMP DP  RH WIND       PRES   REMARKS
DULUTH         MOSUNNY   76  58  53 S3        30.13F
ELY            MOSUNNY   79  52  38 CALM      30.12S
HIBBING        SUNNY     81  56  42 N5        30.12F
EVELETH        SUNNY     81  42  24 E6        30.13F
DULUTH HARBOR  SUNNY     72  63  73 NE6       30.12F
TWO HARBORS    SUNNY     81  63  54 S7        30.11F
SILVER BAY     SUNNY     75  57  53 S6        30.11S
GRAND MARAIS     N/A     68  60  75 SW6       30.12S
G MARAIS ARPRT PTSUNNY   70  54  56 S9        30.16S
$$
MNZ029>031-032-039>041-046>048-054>057-064-282000-
   West Central Minnesota

CITY           SKY/WX    TMP DP  RH WIND       PRES   REMARKS
FERGUS FALLS   SUNNY     81  63  54 S5        30.08S
WHEATON        MOSUNNY   81  61  50 S3        30.09F
MORRIS         SUNNY     84  57  39 S6        30.09S
ALEXANDRIA     MOSUNNY   79  60  52 SE5       30.12S
ELBOW LAKE     FAIR      81  61  51 CALM      30.10S
WADENA         SUNNY     81  57  44 SW3       30.11S
GLENWOOD       MOSUNNY   84  57  39 SE7       30.12S
APPLETON       SUNNY     82  57  42 SE6       30.09S
BENSON         MOSUNNY   84  61  45 SW6       30.10F
ORTONVILLE     SUNNY     82  61  47 MISG        N/A
MADISON        MOSUNNY   84  61  45 E5        30.09S
WILLMAR        FAIR      81  64  57 SE6       30.11F
$$
MNZ033>034-036-042>043-049>051-058-059-282000-
   Central Minnesota

CITY           SKY/WX    TMP DP  RH WIND       PRES   REMARKS
ST CLOUD       SUNNY     82  60  47 E5        30.10S
SAUK CENTRE    MOCLDY    80  60  50 SE5       30.11S HAZE
PAYNESVILLE    MOSUNNY   83  58  42 SE8       30.11S
AITKIN         MOSUNNY   81  59  47 SE5       30.11S
PINE RIVER     SUNNY     81  61  50 CALM      30.14S
BRAINERD       SUNNY     81  57  43 VRB6      30.12S
STAPLES        MOSUNNY   82  57  42 S7        30.11F
LONG PRAIRIE   FAIR      79  61  53 NE6       30.12F
LITTLE FALLS   SUNNY     79  55  44 CALM      30.11F
LITCHFIELD     SUNNY     84  57  39 SE7       30.10S
BUFFALO        SUNNY     83  54  36 E5        30.11S
MAPLE LAKE     SUNNY     85  59  41 E3        30.11S
HUTCHINSON     SUNNY     82  63  53 NE3       30.11S
$$
MNZ037-044-045-052-053-282000-
   East Central Minnesota

CITY           SKY/WX    TMP DP  RH WIND       PRES   REMARKS
PRINCETON      MOSUNNY   84  59  42 NE7       30.10F
MORA           SUNNY     79  55  44 NE3       30.13S
CAMBRIDGE      MOSUNNY   82  61  47 SE3       30.09S
RUSH CITY      SUNNY     81  58  45 NE6       30.11S
MOOSE LAKE     SUNNY     79  57  47 CALM      30.11S
HINCKLEY       FAIR      79  59  50 CALM      30.11F
CLOQUET        SUNNY     77  52  41 SE3       30.13S
MCGREGOR       SUNNY     81  55  41 CALM      30.12F
$$
MNZ071>073-080-081-089-090-097-098-282000-
   Southwest Minnesota

CITY           SKY/WX    TMP DP  RH WIND       PRES   REMARKS
MONTEVIDEO     SUNNY     84  63  48 E3        30.10S
GRANITE FALLS  MOSUNNY   83  63  50 SE3       30.11S
CANBY          CLOUDY    82  61  47 CALM      30.10F
MARSHALL       MOSUNNY   81  62  52 SE8       30.10S
REDWOOD FALLS  MOSUNNY   82  59  45 CALM      30.09S
OLIVIA         PTSUNNY   79  59  50 E5          N/A
PIPESTONE      CLOUDY    79  63  57 S5        30.11F
WINDOM         CLOUDY    79  61  53 NE5       30.11S
WORTHINGTON    PTSUNNY   78  61  55 NE8       30.11F
JACKSON        MOSUNNY   79  61  53 CALM      30.11F
TRACY          MOSUNNY   80  63  54 E3        30.11S
SLAYTON        HVY RAIN  77  43  29 CALM      30.13S
$$
MNZ065>067-074>077-082>085-091>093-282000-
   South Central Minnesota

CITY           SKY/WX    TMP DP  RH WIND       PRES   REMARKS
MANKATO        MOSUNNY   79  59  50 E6        30.10S
NEW ULM        MOSUNNY   81  57  44 NE5       30.09S
ST JAMES       MOSUNNY   81  63  54 E6        30.10F
FAIRMONT       MOSUNNY   80  63  55 CALM      30.10S
GLENCOE        MOSUNNY   82  64  53 E5        30.09S
FARIBAULT      SUNNY     79  63  57 E6        30.10R
OWATONNA       MOSUNNY   81  63  54 NE8       30.10R
WASECA         MOSUNNY   79  63  57 E7        30.10F
ALBERT LEA     SUNNY     81  64  57 E9        30.09S
$$
MNZ078>079-086>088-094>096-282000-
   Southeast Minnesota

CITY           SKY/WX    TMP DP  RH WIND       PRES   REMARKS
ROCHESTER      MOSUNNY   79  63  57 E10       30.10R
RED WING       MOSUNNY   81  55  41 E9        30.08S
STANTON        MOSUNNY   79  62  54 NE7       30.08S
DODGE CENTER   SUNNY     79  61  53 NE7       30.10S
WINONA         MOSUNNY   79  59  50 N7        30.08S
AUSTIN         MOSUNNY   81  59  47 N9        30.08S
PRESTON        MOSUNNY   76  62  60 NE8       30.09S
$$
ABBREVIATIONS USED IN REMARKS
   TC - TEMPERATURES IN CELSIUS
  WCI - WIND CHILL INDEX
   HX - HEAT INDEX
  VSB - VISIBILITY
$$




USA.gov is the U.S. government's official web portal to all federal, state and local government web resources and services.